Regional Weather Roundup
Issued by NWS

Home | Current Version | Previous Version | Text Only | Print | Product List | Glossary Off
Versions: 1 2 3 4 5 6 7 8 9 10 11 12 13 14 15 16 17 18 19 20 21 22 23 24 25 26 27 28 29 30 31 32 33 34 35 36 37 38 39 40 41 42 43 44 45 46 47 48 49 50

019
ASUS45 KBOI 011810
RWRID

IDAHO REGIONAL WEATHER ROUNDUP
NATIONAL WEATHER SERVICE BOISE ID
1200 PM MDT SUN MAY 01 2016

NOTE: "FAIR" INDICATES FEW OR NO CLOUDS BELOW 12000 FEET
WITH NO SIGNIFICANT WEATHER AND/OR OBSTRUCTIONS TO VISIBILITY

IDZ012-014-011900-
SOUTHWEST IDAHO


CITY           SKY/WX    TMP DP  RH WIND       PRES   REMARKS
BOISE          SUNNY     61  40  45 NW3       30.13F
CALDWELL       SUNNY     62  42  47 SW8       30.14F
MOUNTAIN HOME  SUNNY     62  37  38 SE20      30.13F
$$

IDZ016-017-011900-
SOUTHCENTRAL IDAHO


CITY           SKY/WX    TMP DP  RH WIND       PRES   REMARKS
BURLEY         MOSUNNY   56  32  40 E13G22    30.13F
JEROME         MOSUNNY   59  32  36 E18G28    30.15R
TWIN FALLS     PTSUNNY   55  33  43 NE20G25   30.13F
$$

IDZ019>023-011900-
SOUTHEAST IDAHO


CITY           SKY/WX    TMP DP  RH WIND       PRES   REMARKS
IDAHO FALLS    SUNNY     55  27  34 VRB3      30.21F
POCATELLO      MOSUNNY   57  31  37 E12G18    30.18F
REXBURG        SUNNY     54  23  30 VRB3      30.20F
$$

IDZ006-010-011-018-031-032-011900-
CENTRAL IDAHO MOUNTAINS


CITY           SKY/WX    TMP DP  RH WIND       PRES   REMARKS
MCCALL         SUNNY     55  31  39 SW5       30.14
HAILEY         MOSUNNY   55  34  44 W5        30.18F
STANLEY          N/A     52  27  38 VRB6      30.19F
SALMON         SUNNY     55  30  38 N5        30.20F
CHALLIS        SUNNY     55  28  35 NE7       30.19F
$$

IDZ002-004-006-007-026-011900-
NORTHERN IDAHO


CITY           SKY/WX    TMP DP  RH WIND       PRES   REMARKS
LEWISTON       SUNNY     60  47  61 VRB3      30.16F
LOWELL           N/A     64  41  42 CALM      30.14F
COEUR D`ALENE  SUNNY     63  45  51 NE15      30.18F
MULLAN PASS    SUNNY     48  30  49 VRB6      30.24F
$$




USA.gov is the U.S. government's official web portal to all federal, state and local government web resources and services.